| time (UTC) | temp C | wind direction | speed KPH | gust KPH | rain 1hr cm | rain 24hr cm | rain mn cm | humidity % | barometer mb |
| 20260906232408 | 35 | 96 | 3.2 | 3.2 | 0.00 | 0.00 | 0.00 | 46 | 1011.1 |
| 20260906231902 | 36 | 103 | 3.2 | 4.8 | 0.00 | 0.00 | 0.00 | 47 | 1011.2 |
| 20260906231357 | 36 | 150 | 1.6 | 8.0 | 0.00 | 0.00 | 0.00 | 47 | 1011.3 |
| 20260906230856 | 36 | 144 | 1.6 | 4.8 | 0.00 | 0.00 | 0.00 | 45 | 1011.0 |
| 20260906230352 | 36 | 106 | 1.6 | 9.7 | 0.00 | 0.00 | 0.00 | 48 | 1011.2 |
| 20260906225850 | 36 | 163 | 0.0 | 4.8 | 0.00 | 0.00 | 0.00 | 45 | 1011.3 |
| 20260906225346 | 36 | 129 | 3.2 | 3.2 | 0.00 | 0.00 | 0.00 | 43 | 1011.2 |
| 20260906224841 | 36 | 147 | 3.2 | 11.3 | 0.00 | 0.00 | 0.00 | 42 | 1011.3 |
| 20260906224338 | 36 | 82 | 4.8 | 4.8 | 0.00 | 0.00 | 0.00 | 47 | 1011.1 |
| 20260906223833 | 36 | 86 | 1.6 | 8.0 | 0.00 | 0.00 | 0.00 | 45 | 1011.3 |
| 20260906223329 | 36 | 77 | 1.6 | 3.2 | 0.00 | 0.00 | 0.00 | 48 | 1011.3 |
| 20260906222827 | 37 | 84 | 6.4 | 11.3 | 0.00 | 0.00 | 0.00 | 45 | 1011.2 |
| 20260906222321 | 37 | 89 | 3.2 | 3.2 | 0.00 | 0.00 | 0.00 | 43 | 1011.2 |
| 20260906221819 | 37 | 138 | 3.2 | 4.8 | 0.00 | 0.00 | 0.00 | 45 | 1011.4 |
| 20260906221313 | 37 | 108 | 4.8 | 4.8 | 0.00 | 0.00 | 0.00 | 43 | 1011.5 |
| 20260906220809 | 36 | 106 | 1.6 | 3.2 | 0.00 | 0.00 | 0.00 | 44 | 1011.4 |
| 20260906220304 | 36 | 96 | 1.6 | 1.6 | 0.00 | 0.00 | 0.00 | 44 | 1011.4 |
| 20260906215802 | 37 | 148 | 1.6 | 12.9 | 0.00 | 0.00 | 0.00 | 44 | 1011.5 |
| 20260906215257 | 37 | 149 | 3.2 | 3.2 | 0.00 | 0.00 | 0.00 | 41 | 1011.5 |
| 20260906214755 | 36 | 145 | 1.6 | 3.2 | 0.00 | 0.00 | 0.00 | 43 | 1011.6 |
| 20260906214250 | 36 | 131 | 3.2 | 3.2 | 0.00 | 0.00 | 0.00 | 49 | 1011.7 |
| 20260906213744 | 37 | 119 | 4.8 | 9.7 | 0.00 | 0.00 | 0.00 | 44 | 1011.6 |
| 20260906213243 | 37 | 145 | 3.2 | 3.2 | 0.00 | 0.00 | 0.00 | 41 | 1011.5 |
| 20260906212740 | 37 | 132 | 1.6 | 4.8 | 0.00 | 0.00 | 0.00 | 44 | 1011.7 |
| 20260906212237 | 37 | 194 | 3.2 | 4.8 | 0.00 | 0.00 | 0.00 | 41 | 1011.7 |
| 20260906211736 | 38 | 192 | 3.2 | 8.0 | 0.00 | 0.00 | 0.00 | 41 | 1012.0 |
| 20260906211232 | 37 | 116 | 3.2 | 8.0 | 0.00 | 0.00 | 0.00 | 43 | 1011.8 |
| 20260906210726 | 37 | 141 | 1.6 | 4.8 | 0.00 | 0.00 | 0.00 | 42 | 1012.1 |
| 20260906210221 | 37 | 115 | 1.6 | 8.0 | 0.00 | 0.00 | 0.00 | 48 | 1012.1 |
| 20260906205716 | 37 | 139 | 0.0 | 8.0 | 0.00 | 0.00 | 0.00 | 44 | 1012.2 |
| 20260906205213 | 38 | 188 | 1.6 | 3.2 | 0.00 | 0.00 | 0.00 | 44 | 1012.2 |
| 20260906204713 | 37 | 28 | 4.8 | 4.8 | 0.00 | 0.00 | 0.00 | 41 | 1012.0 |
| 20260906204207 | 37 | 99 | 1.6 | 8.0 | 0.00 | 0.00 | 0.00 | 47 | 1012.2 |
| 20260906203707 | 37 | 79 | 4.8 | 9.7 | 0.00 | 0.00 | 0.00 | 46 | 1012.1 |
| 20260906203202 | 37 | 95 | 4.8 | 8.0 | 0.00 | 0.00 | 0.00 | 45 | 1012.4 |
| 20260906202659 | 37 | 90 | 1.6 | 4.8 | 0.00 | 0.00 | 0.00 | 43 | 1012.5 |
| 20260906202157 | 36 | 106 | 4.8 | 9.7 | 0.00 | 0.00 | 0.00 | 43 | 1012.5 |
| 20260906201653 | 36 | 83 | 3.2 | 8.0 | 0.00 | 0.00 | 0.00 | 50 | 1012.7 |
| 20260906201152 | 36 | 104 | 0.0 | 9.7 | 0.00 | 0.00 | 0.00 | 49 | 1012.7 |
| 20260906200648 | 37 | 163 | 4.8 | 8.0 | 0.00 | 0.00 | 0.00 | 42 | 1012.7 |
| 20260906200144 | 37 | 151 | 4.8 | 9.7 | 0.00 | 0.00 | 0.00 | 45 | 1012.6 |
| 20260906195639 | 37 | 99 | 1.6 | 4.8 | 0.00 | 0.00 | 0.00 | 45 | 1012.8 |
| 20260906195136 | 37 | 104 | 1.6 | 4.8 | 0.00 | 0.00 | 0.00 | 46 | 1012.9 |
| 20260906194631 | 37 | 103 | 1.6 | 3.2 | 0.00 | 0.00 | 0.00 | 43 | 1012.8 |
| 20260906194126 | 36 | 131 | 1.6 | 8.0 | 0.00 | 0.00 | 0.00 | 48 | 1012.9 |
| 20260906193627 | 36 | 128 | 3.2 | 4.8 | 0.00 | 0.00 | 0.00 | 48 | 1012.8 |
| 20260906193122 | 36 | 192 | 3.2 | 4.8 | 0.00 | 0.00 | 0.00 | 47 | 1013.1 |
| 20260906192617 | 36 | 133 | 1.6 | 8.0 | 0.00 | 0.00 | 0.00 | 47 | 1013.0 |
| 20260906192116 | 36 | 93 | 3.2 | 11.3 | 0.00 | 0.00 | 0.00 | 48 | 1013.2 |
| 20260906191612 | 36 | 51 | 3.2 | 4.8 | 0.00 | 0.00 | 0.00 | 50 | 1013.3 |
| 20260906191111 | 37 | 74 | 6.4 | 9.7 | 0.00 | 0.00 | 0.00 | 45 | 1013.4 |
| 20260906190611 | 37 | 88 | 6.4 | 14.5 | 0.00 | 0.00 | 0.00 | 47 | 1013.2 |
| 20260906190106 | 37 | 136 | 3.2 | 8.0 | 0.00 | 0.00 | 0.00 | 46 | 1013.3 |
| 20260906185604 | 37 | 131 | 1.6 | 8.0 | 0.00 | 0.00 | 0.00 | 48 | 1013.4 |
| 20260906185103 | 37 | 149 | 4.8 | 4.8 | 0.00 | 0.00 | 0.00 | 46 | 1013.5 |
| 20260906184558 | 36 | 78 | 4.8 | 8.0 | 0.00 | 0.00 | 0.00 | 48 | 1013.4 |
| 20260906184054 | 36 | 118 | 4.8 | 8.0 | 0.00 | 0.00 | 0.00 | 51 | 1013.8 |
| 20260906183550 | 36 | 175 | 1.6 | 3.2 | 0.00 | 0.00 | 0.00 | 48 | 1013.6 |
| 20260906183046 | 36 | 82 | 4.8 | 8.0 | 0.00 | 0.00 | 0.00 | 46 | 1013.7 |
| 20260906182540 | 36 | 137 | 4.8 | 8.0 | 0.00 | 0.00 | 0.00 | 48 | 1013.9 |
| 20260906182037 | 36 | 77 | 3.2 | 4.8 | 0.00 | 0.00 | 0.00 | 49 | 1014.0 |
| 20260906181532 | 36 | 165 | 3.2 | 8.0 | 0.00 | 0.00 | 0.00 | 48 | 1013.8 |
| 20260906181028 | 36 | 79 | 3.2 | 4.8 | 0.00 | 0.00 | 0.00 | 51 | 1014.0 |
| 20260906180522 | 36 | 107 | 6.4 | 9.7 | 0.00 | 0.00 | 0.00 | 48 | 1014.1 |
| 20260906180021 | 36 | 100 | 4.8 | 8.0 | 0.00 | 0.00 | 0.00 | 50 | 1014.1 |
| 20260906175521 | 36 | 117 | 1.6 | 8.0 | 0.00 | 0.00 | 0.00 | 50 | 1014.2 |
| 20260906175021 | 35 | 107 | 1.6 | 4.8 | 0.00 | 0.00 | 0.00 | 52 | 1014.3 |
| 20260906174519 | 36 | 115 | 8.0 | 9.7 | 0.00 | 0.00 | 0.00 | 51 | 1014.3 |
| 20260906174014 | 36 | 152 | 1.6 | 8.0 | 0.00 | 0.00 | 0.00 | 49 | 1014.5 |
| 20260906173509 | 35 | 95 | 3.2 | 3.2 | 0.00 | 0.00 | 0.00 | 52 | 1014.6 |
| 20260906173005 | 36 | 70 | 3.2 | 3.2 | 0.00 | 0.00 | 0.00 | 50 | 1014.7 |
| 20260906172459 | 35 | 60 | 4.8 | 8.0 | 0.00 | 0.00 | 0.00 | 49 | 1015.1 |
| 20260906171954 | 35 | 60 | 8.0 | 12.9 | 0.00 | 0.00 | 0.00 | 52 | 1015.0 |
| 20260906171449 | 35 | 200 | 4.8 | 11.3 | 0.00 | 0.00 | 0.00 | 50 | 1015.1 |
| 20260906170944 | 35 | 54 | 3.2 | 8.0 | 0.00 | 0.00 | 0.00 | 51 | 1015.1 |
| 20260906170441 | 35 | 139 | 0.0 | 4.8 | 0.00 | 0.00 | 0.00 | 53 | 1015.1 |
| 20260906165938 | 35 | 171 | 3.2 | 8.0 | 0.00 | 0.00 | 0.00 | 54 | 1015.2 |
| 20260906165437 | 35 | 91 | 1.6 | 3.2 | 0.00 | 0.00 | 0.00 | 54 | 1015.1 |
| 20260906164932 | 35 | 204 | 3.2 | 9.7 | 0.00 | 0.00 | 0.00 | 54 | 1015.2 |
| 20260906164430 | 34 | 92 | 0.0 | 1.6 | 0.00 | 0.00 | 0.00 | 54 | 1015.3 |
| 20260906163927 | 35 | 90 | 4.8 | 4.8 | 0.00 | 0.00 | 0.00 | 53 | 1015.4 |
| 20260906163423 | 34 | 108 | 3.2 | 8.0 | 0.00 | 0.00 | 0.00 | 54 | 1015.2 |
| 20260906162921 | 35 | 136 | 1.6 | 4.8 | 0.00 | 0.00 | 0.00 | 54 | 1015.1 |
| 20260906162419 | 34 | 50 | 3.2 | 9.7 | 0.00 | 0.00 | 0.00 | 55 | 1015.5 |
| 20260906161915 | 33 | 190 | 4.8 | 8.0 | 0.00 | 0.00 | 0.00 | 57 | 1015.3 |
| 20260906161414 | 33 | 161 | 1.6 | 4.8 | 0.00 | 0.00 | 0.00 | 58 | 1015.2 |
| 20260906160913 | 34 | 72 | 1.6 | 3.2 | 0.00 | 0.00 | 0.00 | 58 | 1015.4 |
| 20260906160407 | 32 | 125 | 1.6 | 3.2 | 0.00 | 0.00 | 0.00 | 61 | 1015.1 |
| 20260906155905 | 32 | 83 | 3.2 | 8.0 | 0.00 | 0.00 | 0.00 | 63 | 1015.5 |
| 20260906155359 | 33 | 49 | 3.2 | 3.2 | 0.00 | 0.00 | 0.00 | 62 | 1015.2 |
| 20260906154855 | 32 | 85 | 3.2 | 4.8 | 0.00 | 0.00 | 0.00 | 63 | 1015.3 |
| 20260906154349 | 33 | 111 | 1.6 | 3.2 | 0.00 | 0.00 | 0.00 | 62 | 1015.4 |
| 20260906153848 | 32 | 80 | 3.2 | 4.8 | 0.00 | 0.00 | 0.00 | 62 | 1015.2 |
| 20260906153347 | 32 | 94 | 0.0 | 3.2 | 0.00 | 0.00 | 0.00 | 64 | 1015.3 |
| 20260906152842 | 32 | 74 | 3.2 | 3.2 | 0.00 | 0.00 | 0.00 | 63 | 1015.2 |
| 20260906152337 | 32 | 116 | 1.6 | 3.2 | 0.00 | 0.00 | 0.00 | 64 | 1015.1 |
| 20260906151837 | 32 | 60 | 1.6 | 4.8 | 0.00 | 0.00 | 0.00 | 65 | 1015.1 |
| 20260906151332 | 32 | 100 | 1.6 | 3.2 | 0.00 | 0.00 | 0.00 | 63 | 1015.2 |
| 20260906150828 | 32 | 120 | 1.6 | 3.2 | 0.00 | 0.00 | 0.00 | 64 | 1015.3 |
| 20260906150324 | 31 | 99 | 1.6 | 3.2 | 0.00 | 0.00 | 0.00 | 64 | 1015.2 |
| 20260906145823 | 31 | 67 | 1.6 | 3.2 | 0.00 | 0.00 | 0.00 | 65 | 1015.3 |
| 20260906145321 | 31 | 112 | 1.6 | 3.2 | 0.00 | 0.00 | 0.00 | 66 | 1015.1 |
| 20260906144816 | 31 | 92 | 1.6 | 3.2 | 0.00 | 0.00 | 0.00 | 65 | 1015.2 |
| 20260906144311 | 31 | 104 | 1.6 | 3.2 | 0.00 | 0.00 | 0.00 | 68 | 1015.0 |
| 20260906143811 | 31 | 112 | 0.0 | 3.2 | 0.00 | 0.00 | 0.00 | 66 | 1014.9 |
| 20260906143308 | 30 | 95 | 1.6 | 3.2 | 0.00 | 0.00 | 0.00 | 68 | 1014.9 |
| 20260906142802 | 30 | 72 | 1.6 | 1.6 | 0.00 | 0.00 | 0.00 | 70 | 1014.9 |
| 20260906142258 | 30 | 109 | 0.0 | 1.6 | 0.00 | 0.00 | 0.00 | 69 | 1015.2 |
| 20260906141756 | 30 | 88 | 1.6 | 3.2 | 0.00 | 0.00 | 0.00 | 70 | 1015.1 |
| 20260906141251 | 31 | 91 | 1.6 | 1.6 | 0.00 | 0.00 | 0.00 | 69 | 1015.0 |
| 20260906140750 | 30 | 89 | 1.6 | 1.6 | 0.00 | 0.00 | 0.00 | 69 | 1015.0 |
| 20260906140245 | 30 | 97 | 1.6 | 3.2 | 0.00 | 0.00 | 0.00 | 70 | 1014.8 |
| 20260906135743 | 30 | 91 | 0.0 | 1.6 | 0.00 | 0.00 | 0.00 | 70 | 1014.9 |
| 20260906135238 | 30 | 129 | 1.6 | 3.2 | 0.00 | 0.00 | 0.00 | 70 | 1014.8 |
| 20260906134734 | 30 | 135 | 0.0 | 3.2 | 0.00 | 0.00 | 0.00 | 71 | 1014.9 |
| 20260906134229 | 30 | 117 | 1.6 | 3.2 | 0.00 | 0.00 | 0.00 | 72 | 1014.9 |
| 20260906133724 | 29 | 117 | 1.6 | 1.6 | 0.00 | 0.00 | 0.00 | 73 | 1015.0 |
| 20260906133220 | 29 | 123 | 0.0 | 1.6 | 0.00 | 0.00 | 0.00 | 74 | 1014.8 |
| 20260906132715 | 29 | 102 | 1.6 | 3.2 | 0.00 | 0.00 | 0.00 | 73 | 1015.1 |
| 20260906132211 | 29 | 122 | 0.0 | 1.6 | 0.00 | 0.00 | 0.00 | 73 | 1015.1 |
| 20260906131706 | 28 | 117 | 0.0 | 1.6 | 0.00 | 0.00 | 0.00 | 75 | 1014.9 |
| 20260906131201 | 28 | 110 | 0.0 | 3.2 | 0.00 | 0.00 | 0.00 | 76 | 1014.9 |
| 20260906130656 | 28 | 127 | 0.0 | 3.2 | 0.00 | 0.00 | 0.00 | 76 | 1015.1 |
| 20260906130151 | 28 | 137 | 1.6 | 1.6 | 0.00 | 0.00 | 0.00 | 76 | 1015.2 |
| 20260906125649 | 27 | 125 | 0.0 | 1.6 | 0.00 | 0.00 | 0.00 | 77 | 1014.8 |
| 20260906125148 | 27 | 128 | 0.0 | 1.6 | 0.00 | 0.00 | 0.00 | 78 | 1015.0 |
| 20260906124643 | 27 | 105 | 0.0 | 1.6 | 0.00 | 0.00 | 0.00 | 80 | 1014.8 |
| 20260906124139 | 26 | 131 | 0.0 | 0.0 | 0.00 | 0.00 | 0.00 | 81 | 1014.9 |
| 20260906123638 | 26 | 129 | 0.0 | 1.6 | 0.00 | 0.00 | 0.00 | 82 | 1014.9 |
| 20260906123133 | 26 | 139 | 1.6 | 4.8 | 0.00 | 0.00 | 0.00 | 82 | 1014.7 |
| 20260906122632 | 26 | 136 | 0.0 | 1.6 | 0.00 | 0.00 | 0.00 | 83 | 1014.8 |
| 20260906122128 | 26 | 141 | 1.6 | 1.6 | 0.00 | 0.00 | 0.00 | 83 | 1014.8 |
| 20260906121624 | 26 | 158 | 3.2 | 3.2 | 0.00 | 0.00 | 0.00 | 83 | 1014.8 |
| 20260906121120 | 26 | 153 | 1.6 | 1.6 | 0.00 | 0.00 | 0.00 | 83 | 1014.9 |
| 20260906120615 | 26 | 130 | 0.0 | 1.6 | 0.00 | 0.00 | 0.00 | 83 | 1014.7 |
| 20260906120113 | 26 | 139 | 1.6 | 1.6 | 0.00 | 0.00 | 0.00 | 83 | 1014.5 |
| 20260906115607 | 26 | 129 | 0.0 | 0.0 | 0.00 | 0.00 | 0.00 | 83 | 1014.4 |
| 20260906115102 | 26 | 129 | 0.0 | 1.6 | 0.00 | 0.00 | 0.00 | 82 | 1014.4 |
| 20260906114556 | 26 | 132 | 1.6 | 1.6 | 0.00 | 0.00 | 0.00 | 82 | 1014.3 |
| 20260906114051 | 26 | 127 | 0.0 | 1.6 | 0.00 | 0.00 | 0.00 | 82 | 1014.4 |
| 20260906113550 | 26 | 128 | 0.0 | 1.6 | 0.00 | 0.00 | 0.00 | 82 | 1014.4 |
| 20260906113046 | 26 | 133 | 1.6 | 1.6 | 0.00 | 0.00 | 0.00 | 83 | 1014.3 |
| 20260906112540 | 26 | 129 | 0.0 | 0.0 | 0.00 | 0.00 | 0.00 | 83 | 1014.2 |
| 20260906112037 | 26 | 129 | 0.0 | 0.0 | 0.00 | 0.00 | 0.00 | 83 | 1014.2 |
| 20260906111536 | 26 | 127 | 0.0 | 0.0 | 0.00 | 0.00 | 0.00 | 84 | 1014.1 |
| 20260906111032 | 26 | 126 | 0.0 | 0.0 | 0.00 | 0.00 | 0.00 | 84 | 1014.2 |
| 20260906110532 | 26 | 123 | 0.0 | 0.0 | 0.00 | 0.00 | 0.00 | 83 | 1014.1 |
| 20260906110030 | 26 | 121 | 0.0 | 0.0 | 0.00 | 0.00 | 0.00 | 83 | 1014.2 |
| 20260906105526 | 26 | 122 | 0.0 | 0.0 | 0.00 | 0.00 | 0.00 | 83 | 1013.9 |
| 20260906105022 | 26 | 123 | 0.0 | 0.0 | 0.00 | 0.00 | 0.00 | 82 | 1013.9 |
| 20260906104520 | 26 | 107 | 0.0 | 0.0 | 0.00 | 0.00 | 0.00 | 82 | 1013.8 |
| 20260906104015 | 26 | 130 | 0.0 | 1.6 | 0.00 | 0.00 | 0.00 | 82 | 1014.0 |
| 20260906103513 | 26 | 116 | 0.0 | 0.0 | 0.00 | 0.00 | 0.00 | 82 | 1013.9 |
| 20260906103009 | 26 | 125 | 0.0 | 0.0 | 0.00 | 0.00 | 0.00 | 82 | 1014.0 |
| 20260906102508 | 26 | 119 | 0.0 | 0.0 | 0.00 | 0.00 | 0.00 | 82 | 1014.0 |
| 20260906102003 | 26 | 121 | 0.0 | 0.0 | 0.00 | 0.00 | 0.00 | 82 | 1014.0 |
| 20260906101458 | 26 | 123 | 0.0 | 0.0 | 0.00 | 0.00 | 0.00 | 81 | 1013.6 |
| 20260906100953 | 26 | 125 | 0.0 | 0.0 | 0.00 | 0.00 | 0.00 | 82 | 1013.7 |
| 20260906100448 | 26 | 123 | 0.0 | 0.0 | 0.00 | 0.00 | 0.00 | 81 | 1013.6 |
| 20260906095942 | 26 | 122 | 0.0 | 0.0 | 0.00 | 0.00 | 0.00 | 81 | 1013.6 |
| 20260906095437 | 26 | 107 | 0.0 | 0.0 | 0.00 | 0.00 | 0.00 | 81 | 1013.4 |
| 20260906094933 | 26 | 123 | 0.0 | 0.0 | 0.00 | 0.00 | 0.00 | 81 | 1013.5 |
| 20260906094426 | 26 | 125 | 0.0 | 0.0 | 0.00 | 0.00 | 0.00 | 81 | 1013.4 |
| 20260906093922 | 26 | 125 | 0.0 | 0.0 | 0.00 | 0.00 | 0.00 | 81 | 1013.2 |
| 20260906093419 | 26 | 124 | 0.0 | 0.0 | 0.00 | 0.00 | 0.00 | 81 | 1013.3 |
| 20260906092913 | 26 | 137 | 0.0 | 1.6 | 0.00 | 0.00 | 0.00 | 81 | 1013.3 |
| 20260906092413 | 26 | 126 | 0.0 | 0.0 | 0.00 | 0.00 | 0.00 | 82 | 1013.5 |
| 20260906091908 | 26 | 129 | 0.0 | 0.0 | 0.00 | 0.00 | 0.00 | 82 | 1013.1 |
| 20260906091404 | 26 | 111 | 0.0 | 0.0 | 0.00 | 0.00 | 0.00 | 81 | 1013.2 |
| 20260906090901 | 26 | 117 | 0.0 | 0.0 | 0.00 | 0.00 | 0.00 | 81 | 1013.2 |
| 20260906090400 | 26 | 119 | 0.0 | 0.0 | 0.00 | 0.00 | 0.00 | 81 | 1013.3 |
| 20260906085854 | 26 | 116 | 0.0 | 0.0 | 0.00 | 0.00 | 0.00 | 80 | 1013.1 |
| 20260906085348 | 26 | 120 | 0.0 | 0.0 | 0.00 | 0.00 | 0.00 | 80 | 1013.2 |
| 20260906084843 | 26 | 124 | 0.0 | 1.6 | 0.00 | 0.00 | 0.00 | 80 | 1013.0 |
| 20260906084343 | 26 | 123 | 0.0 | 0.0 | 0.00 | 0.00 | 0.00 | 80 | 1013.1 |
| 20260906083837 | 26 | 113 | 0.0 | 0.0 | 0.00 | 0.00 | 0.00 | 80 | 1013.1 |
| 20260906083332 | 26 | 114 | 0.0 | 0.0 | 0.00 | 0.00 | 0.00 | 79 | 1013.2 |
| 20260906082826 | 26 | 121 | 0.0 | 0.0 | 0.00 | 0.00 | 0.00 | 79 | 1013.1 |
| 20260906082322 | 27 | 119 | 0.0 | 0.0 | 0.00 | 0.00 | 0.00 | 79 | 1013.1 |
| 20260906081818 | 27 | 118 | 0.0 | 0.0 | 0.00 | 0.00 | 0.00 | 78 | 1013.2 |
| 20260906081313 | 27 | 127 | 0.0 | 0.0 | 0.00 | 0.00 | 0.00 | 78 | 1013.2 |
| 20260906080809 | 27 | 110 | 0.0 | 0.0 | 0.00 | 0.00 | 0.00 | 77 | 1013.1 |
| 20260906080305 | 27 | 122 | 0.0 | 0.0 | 0.00 | 0.00 | 0.00 | 77 | 1013.1 |
| 20260906075805 | 27 | 116 | 0.0 | 1.6 | 0.00 | 0.00 | 0.00 | 77 | 1013.1 |
| 20260906075306 | 27 | 101 | 0.0 | 1.6 | 0.00 | 0.00 | 0.00 | 76 | 1013.3 |
| 20260906074800 | 27 | 126 | 1.6 | 1.6 | 0.00 | 0.00 | 0.00 | 76 | 1013.3 |
| 20260906074259 | 27 | 128 | 0.0 | 0.0 | 0.00 | 0.00 | 0.00 | 76 | 1013.2 |
| 20260906073759 | 27 | 134 | 1.6 | 3.2 | 0.00 | 0.00 | 0.00 | 76 | 1013.3 |
| 20260906073253 | 27 | 133 | 0.0 | 1.6 | 0.00 | 0.00 | 0.00 | 76 | 1013.3 |
| 20260906072749 | 27 | 110 | 0.0 | 3.2 | 0.00 | 0.00 | 0.00 | 76 | 1013.1 |
| 20260906072245 | 27 | 126 | 0.0 | 4.8 | 0.00 | 0.00 | 0.00 | 76 | 1013.3 |
| 20260906071741 | 27 | 130 | 1.6 | 3.2 | 0.00 | 0.00 | 0.00 | 76 | 1013.3 |
| 20260906071241 | 27 | 128 | 1.6 | 3.2 | 0.00 | 0.00 | 0.00 | 76 | 1013.2 |
| 20260906070737 | 27 | 124 | 1.6 | 1.6 | 0.00 | 0.00 | 0.00 | 76 | 1013.3 |
| 20260906070233 | 27 | 130 | 1.6 | 1.6 | 0.00 | 0.00 | 0.00 | 76 | 1013.5 |
| 20260906065732 | 28 | 140 | 1.6 | 1.6 | 0.00 | 0.00 | 0.00 | 75 | 1013.6 |
| 20260906065228 | 28 | 120 | 0.0 | 1.6 | 0.00 | 0.00 | 0.00 | 75 | 1013.3 |
| 20260906064723 | 28 | 111 | 0.0 | 3.2 | 0.00 | 0.00 | 0.00 | 75 | 1013.6 |
| 20260906064219 | 28 | 113 | 1.6 | 1.6 | 0.00 | 0.00 | 0.00 | 74 | 1013.5 |
| 20260906063714 | 28 | 125 | 0.0 | 1.6 | 0.00 | 0.00 | 0.00 | 74 | 1013.6 |
| 20260906063209 | 28 | 130 | 0.0 | 1.6 | 0.00 | 0.00 | 0.00 | 74 | 1013.6 |
| 20260906062705 | 28 | 135 | 0.0 | 3.2 | 0.00 | 0.00 | 0.00 | 74 | 1013.7 |
| 20260906062204 | 28 | 114 | 3.2 | 3.2 | 0.00 | 0.00 | 0.00 | 74 | 1013.6 |
| 20260906061700 | 28 | 117 | 0.0 | 1.6 | 0.00 | 0.00 | 0.00 | 75 | 1013.8 |
| 20260906061155 | 28 | 123 | 0.0 | 1.6 | 0.00 | 0.00 | 0.00 | 74 | 1013.6 |
| 20260906060651 | 28 | 121 | 0.0 | 1.6 | 0.00 | 0.00 | 0.00 | 74 | 1013.7 |
| 20260906060148 | 28 | 113 | 0.0 | 1.6 | 0.00 | 0.00 | 0.00 | 74 | 1013.7 |
| 20260906055643 | 28 | 118 | 1.6 | 3.2 | 0.00 | 0.00 | 0.00 | 74 | 1013.8 |
| 20260906055139 | 28 | 113 | 0.0 | 1.6 | 0.00 | 0.00 | 0.00 | 74 | 1013.6 |
| 20260906054634 | 28 | 130 | 0.0 | 1.6 | 0.00 | 0.00 | 0.00 | 74 | 1013.5 |
| 20260906054129 | 28 | 115 | 0.0 | 1.6 | 0.00 | 0.00 | 0.00 | 74 | 1013.4 |
| 20260906053626 | 28 | 111 | 0.0 | 1.6 | 0.00 | 0.00 | 0.00 | 73 | 1013.5 |
| 20260906053120 | 28 | 119 | 0.0 | 0.0 | 0.00 | 0.00 | 0.00 | 73 | 1013.5 |
| 20260906052616 | 28 | 112 | 0.0 | 1.6 | 0.00 | 0.00 | 0.00 | 73 | 1013.5 |
| 20260906052112 | 29 | 118 | 0.0 | 0.0 | 0.00 | 0.00 | 0.00 | 73 | 1013.2 |
| 20260906051603 | 29 | 134 | 1.6 | 4.8 | 0.00 | 0.00 | 0.00 | 72 | 1013.5 |
| 20260906051058 | 29 | 121 | 1.6 | 1.6 | 0.00 | 0.00 | 0.00 | 72 | 1013.6 |
| 20260906050558 | 29 | 116 | 0.0 | 1.6 | 0.00 | 0.00 | 0.00 | 72 | 1013.6 |
| 20260906050048 | 29 | 139 | 0.0 | 3.2 | 0.00 | 0.00 | 0.00 | 72 | 1013.5 |
| 20260906045546 | 29 | 111 | 1.6 | 1.6 | 0.00 | 0.00 | 0.00 | 72 | 1013.4 |
| 20260906045042 | 29 | 124 | 1.6 | 3.2 | 0.00 | 0.00 | 0.00 | 72 | 1013.5 |
| 20260906044537 | 29 | 122 | 0.0 | 3.2 | 0.00 | 0.00 | 0.00 | 72 | 1013.5 |
| 20260906044033 | 29 | 128 | 0.0 | 1.6 | 0.00 | 0.00 | 0.00 | 72 | 1013.4 |
| 20260906043528 | 30 | 145 | 1.6 | 3.2 | 0.00 | 0.00 | 0.00 | 71 | 1013.4 |
| 20260906043025 | 30 | 125 | 0.0 | 1.6 | 0.00 | 0.00 | 0.00 | 70 | 1013.2 |
| 20260906042522 | 30 | 146 | 1.6 | 3.2 | 0.00 | 0.00 | 0.00 | 70 | 1013.3 |
| 20260906042018 | 30 | 108 | 1.6 | 1.6 | 0.00 | 0.00 | 0.00 | 69 | 1013.4 |
| 20260906041514 | 30 | 94 | 1.6 | 3.2 | 0.00 | 0.00 | 0.00 | 69 | 1013.2 |
| 20260906041014 | 30 | 128 | 1.6 | 1.6 | 0.00 | 0.00 | 0.00 | 69 | 1013.1 |
| 20260906040509 | 30 | 127 | 0.0 | 0.0 | 0.00 | 0.00 | 0.00 | 69 | 1013.1 |
| 20260906040004 | 30 | 128 | 0.0 | 1.6 | 0.00 | 0.00 | 0.00 | 68 | 1013.1 |
| 20260906035459 | 30 | 132 | 0.0 | 1.6 | 0.00 | 0.00 | 0.00 | 68 | 1013.3 |
| 20260906034955 | 30 | 127 | 0.0 | 1.6 | 0.00 | 0.00 | 0.00 | 67 | 1013.4 |
| 20260906034454 | 30 | 133 | 1.6 | 3.2 | 0.00 | 0.00 | 0.00 | 67 | 1013.1 |
| 20260906033950 | 30 | 124 | 1.6 | 3.2 | 0.00 | 0.00 | 0.00 | 66 | 1013.3 |
| 20260906033444 | 30 | 125 | 1.6 | 4.8 | 0.00 | 0.00 | 0.00 | 66 | 1013.3 |
| 20260906032940 | 30 | 125 | 1.6 | 3.2 | 0.00 | 0.00 | 0.00 | 66 | 1013.2 |
| 20260906032437 | 31 | 125 | 0.0 | 1.6 | 0.00 | 0.00 | 0.00 | 66 | 1013.1 |
| 20260906031930 | 31 | 122 | 1.6 | 3.2 | 0.00 | 0.00 | 0.00 | 66 | 1013.3 |
| 20260906031426 | 31 | 133 | 3.2 | 3.2 | 0.00 | 0.00 | 0.00 | 65 | 1013.5 |
| 20260906030921 | 31 | 141 | 1.6 | 3.2 | 0.00 | 0.00 | 0.00 | 65 | 1013.4 |
| 20260906030416 | 31 | 124 | 1.6 | 3.2 | 0.00 | 0.00 | 0.00 | 65 | 1013.3 |
| 20260906025910 | 31 | 128 | 3.2 | 8.0 | 0.00 | 0.00 | 0.00 | 65 | 1013.1 |
| 20260906025405 | 31 | 101 | 1.6 | 3.2 | 0.00 | 0.00 | 0.00 | 65 | 1013.3 |
| 20260906024904 | 31 | 133 | 1.6 | 8.0 | 0.00 | 0.00 | 0.00 | 64 | 1013.3 |
| 20260906024403 | 31 | 154 | 4.8 | 8.0 | 0.00 | 0.00 | 0.00 | 64 | 1013.1 |
| 20260906023858 | 31 | 132 | 0.0 | 3.2 | 0.00 | 0.00 | 0.00 | 65 | 1013.1 |
| 20260906023354 | 31 | 87 | 1.6 | 3.2 | 0.00 | 0.00 | 0.00 | 64 | 1013.0 |
| 20260906022849 | 31 | 134 | 1.6 | 8.0 | 0.00 | 0.00 | 0.00 | 64 | 1013.2 |
| 20260906022344 | 31 | 141 | 0.0 | 4.8 | 0.00 | 0.00 | 0.00 | 65 | 1012.7 |
| 20260906021840 | 31 | 163 | 1.6 | 8.0 | 0.00 | 0.00 | 0.00 | 63 | 1012.7 |
| 20260906021339 | 31 | 136 | 4.8 | 9.7 | 0.00 | 0.00 | 0.00 | 63 | 1012.7 |
| 20260906020834 | 31 | 170 | 3.2 | 3.2 | 0.00 | 0.00 | 0.00 | 64 | 1012.4 |
| 20260906020333 | 31 | 139 | 6.4 | 9.7 | 0.00 | 0.00 | 0.00 | 63 | 1012.5 |
| 20260906015828 | 31 | 157 | 6.4 | 9.7 | 0.00 | 0.00 | 0.00 | 62 | 1012.4 |
| 20260906015327 | 31 | 121 | 3.2 | 9.7 | 0.00 | 0.00 | 0.00 | 62 | 1012.3 |
| 20260906014827 | 32 | 146 | 3.2 | 4.8 | 0.00 | 0.00 | 0.00 | 62 | 1012.2 |
| 20260906014322 | 32 | 156 | 4.8 | 8.0 | 0.00 | 0.00 | 0.00 | 62 | 1012.5 |
| 20260906013818 | 32 | 145 | 1.6 | 4.8 | 0.00 | 0.00 | 0.00 | 61 | 1012.2 |
| 20260906013313 | 32 | 183 | 6.4 | 9.7 | 0.00 | 0.00 | 0.00 | 59 | 1012.0 |
| 20260906012809 | 32 | 131 | 3.2 | 11.3 | 0.00 | 0.00 | 0.00 | 59 | 1012.2 |
| 20260906012309 | 32 | 179 | 4.8 | 8.0 | 0.00 | 0.00 | 0.00 | 60 | 1011.8 |
| 20260906011804 | 32 | 106 | 3.2 | 9.7 | 0.00 | 0.00 | 0.00 | 59 | 1011.7 |
| 20260906011258 | 33 | 130 | 4.8 | 11.3 | 0.00 | 0.00 | 0.00 | 57 | 1011.6 |
| 20260906010754 | 33 | 136 | 3.2 | 9.7 | 0.00 | 0.00 | 0.00 | 59 | 1011.8 |
| 20260906010250 | 33 | 118 | 3.2 | 12.9 | 0.00 | 0.00 | 0.00 | 59 | 1011.8 |
| 20260906005745 | 34 | 103 | 8.0 | 12.9 | 0.00 | 0.00 | 0.00 | 53 | 1011.4 |
| 20260906005244 | 35 | 152 | 1.6 | 3.2 | 0.00 | 0.00 | 0.00 | 52 | 1011.4 |
| 20260906004743 | 35 | 136 | 1.6 | 3.2 | 0.00 | 0.00 | 0.00 | 49 | 1011.3 |
| 20260906004238 | 35 | 154 | 3.2 | 4.8 | 0.00 | 0.00 | 0.00 | 50 | 1011.2 |
| 20260906003733 | 35 | 144 | 3.2 | 4.8 | 0.00 | 0.00 | 0.00 | 51 | 1011.2 |
| 20260906003229 | 35 | 163 | 1.6 | 3.2 | 0.00 | 0.00 | 0.00 | 49 | 1011.1 |
| 20260906002723 | 35 | 102 | 3.2 | 3.2 | 0.00 | 0.00 | 0.00 | 49 | 1011.3 |
| 20260906002218 | 35 | 142 | 1.6 | 3.2 | 0.00 | 0.00 | 0.00 | 48 | 1011.2 |
| 20260906001714 | 35 | 213 | 6.4 | 8.0 | 0.00 | 0.00 | 0.00 | 45 | 1011.2 |
| 20260906001214 | 35 | 78 | 3.2 | 3.2 | 0.00 | 0.00 | 0.00 | 46 | 1011.3 |
| 20260906000709 | 35 | 171 | 1.6 | 3.2 | 0.00 | 0.00 | 0.00 | 45 | 1011.2 |
| 20260906000204 | 35 | 115 | 1.6 | 3.2 | 0.00 | 0.00 | 0.00 | 43 | 1011.0 |
| 20260905235703 | 35 | 98 | 1.6 | 3.2 | 0.00 | 0.00 | 0.00 | 45 | 1011.0 |
| 20260905235158 | 35 | 130 | 1.6 | 3.2 | 0.00 | 0.00 | 0.00 | 44 | 1011.1 |
| 20260905234653 | 35 | 126 | 1.6 | 1.6 | 0.00 | 0.00 | 0.00 | 47 | 1011.0 |
| 20260905234149 | 35 | 116 | 1.6 | 3.2 | 0.00 | 0.00 | 0.00 | 47 | 1011.0 |
| 20260905233644 | 36 | 132 | 0.0 | 1.6 | 0.00 | 0.00 | 0.00 | 48 | 1010.8 |
| 20260905233143 | 36 | 141 | 3.2 | 4.8 | 0.00 | 0.00 | 0.00 | 43 | 1010.8 |
| 20260905232638 | 36 | 142 | 4.8 | 4.8 | 0.00 | 0.00 | 0.00 | 42 | 1010.8 |